{"data":{"norad_id":69110,"epoch":"2026-09-20T03:00:18.682272Z","epoch_age_seconds":55506,"freshness":"FRESH","line1":"1 69110U 26108G   26263.12521623  .00000115  00000+0  15917-3 0  9997","line2":"2 69110  89.0193  12.5639 0001819 103.7510 256.3844 13.51027831 17259","mean_motion":13.51027831,"eccentricity":0.0001819,"inclination_deg":89.0193,"raan_deg":12.5639,"arg_perigee_deg":103.751,"mean_anomaly_deg":256.3844,"bstar":0.00015917,"rev_number":1725,"period_min":106.58551711212,"perigee_km":1067.1247777542,"apogee_km":1069.8338567705,"semimajor_km":7446.6163172624,"source":"CELESTRAK","updated_at":"2026-09-20T09:00:24.680264Z"}}